Location: St. Louis
(38.6270°N, 90.1994°W)
Time: 03:07:27
(UTC-05:00)

ISS - Pass Details

Date: 02 August 2017
Orbit: 401 x 409 km, 51.6° (Epoch: 22 August)

Event Time Altitude Azimuth Distance (km) Brightness Sun altitude
Rises 23:25:16 0° 313° (NW) 2,315 1.1 -29.1°
Reaches altitude 10° 23:27:25 10° 321° (NW) 1,454 -0.1 -29.3°
Enters shadow 23:28:05 15° 325° (NW) 1,201 -0.6 -29.3°
